Theta_e
310 310 309 309 309 310 311 313 314 314 315 316 317 318 319 319 319 318 317 315 314 312 310 312 318 322 322 323 324 324 325 326 326 327 329 330 328 328 328 330 331 332 332 333 332 332 333 332 332 334 333 332 331 331 330 330 329 329 336 336 335 339 336 335 331 325 328 328 325 326 326 328 327 325 325 325 324 324 322 323 325 323 322 324 325 326 328 327
309 310 309 308 308 309 310 311 312 313 314 315 316 317 318 319 319 319 318 316 315 314 312 310 313 320 321 321 323 324 324 325 325 326 328 329 329 329 328 328 330 331 332 332 333 333 333 332 333 334 333 332 331 331 330 330 329 331 337 336 337 341 334 329 325 322 324 324 323 324 324 326 327 324 323 324 324 324 325 324 324 325 325 326 324 322 321 321
309 309 309 308 308 308 309 310 311 312 313 314 316 316 317 318 319 319 319 318 317 315 314 311 310 315 318 319 322 323 324 325 324 326 327 328 329 329 328 328 329 331 332 332 333 333 333 332 334 334 334 333 332 332 330 329 330 330 332 336 341 338 330 326 322 321 322 322 321 322 322 324 325 324 323 323 322 323 325 325 324 326 327 326 325 323 320 319
309 309 309 309 308 308 308 309 310 311 312 313 314 314 315 317 318 319 319 319 318 317 316 313 310 311 314 318 321 323 324 324 324 325 326 327 328 329 328 328 328 330 331 332 333 334 333 333 334 334 333 333 332 332 330 329 330 330 331 337 339 333 329 326 321 322 323 323 322 321 322 322 323 325 324 323 323 324 323 324 325 325 326 325 325 324 322 319
309 309 309 310 309 309 308 308 309 310 311 312 313 313 314 316 317 318 318 319 319 318 317 315 311 309 311 317 320 323 324 324 327 326 325 326 327 328 329 329 328 328 330 332 333 334 333 333 333 333 333 333 332 333 332 330 330 330 331 332 332 330 330 326 321 324 324 323 323 321 322 322 323 323 323 323 325 326 323 324 325 324 325 325 325 324 322 321
309 309 309 309 309 309 309 308 308 309 310 311 312 313 313 314 316 317 318 318 318 319 318 316 314 309 309 316 321 323 323 324 329 328 326 325 325 327 328 329 329 327 329 331 333 333 333 333 332 332 332 333 333 334 334 332 330 331 331 328 328 329 329 326 323 324 325 324 322 320 320 320 321 322 322 322 324 325 323 323 323 324 325 325 325 324 323 321
309 309 309 309 309 309 309 308 307 308 309 310 311 312 312 313 315 316 317 318 318 319 319 318 315 310 310 316 320 323 323 324 327 328 329 327 326 326 326 329 329 328 329 330 331 332 333 333 332 332 332 334 333 333 333 332 331 332 332 329 328 329 328 328 324 323 325 325 323 321 321 320 320 322 322 322 322 322 322 322 322 323 324 325 325 325 324 322
308 308 309 309 309 309 309 309 308 307 308 308 309 310 311 312 313 315 316 317 317 318 319 318 316 312 310 316 321 324 324 323 325 328 329 328 327 327 328 329 330 329 329 329 330 330 331 333 332 331 332 334 333 332 332 333 332 331 332 330 329 329 328 328 325 323 325 325 325 324 322 322 322 322 321 321 323 322 322 322 322 322 323 324 326 326 325 321
307 307 308 308 308 309 309 309 308 308 307 307 308 309 310 311 312 313 315 316 317 318 319 319 317 313 310 317 323 325 324 323 323 326 328 327 326 326 327 329 330 330 330 329 329 329 331 333 332 331 332 333 332 332 332 333 334 332 331 331 329 329 328 328 325 323 324 324 325 324 322 323 324 323 322 322 323 323 323 322 322 322 323 324 324 324 323 321
307 307 307 307 308 308 308 308 308 308 307 307 307 308 309 311 312 313 314 316 316 317 318 319 318 314 311 317 324 324 324 323 322 324 326 326 325 324 325 325 327 329 330 329 328 328 330 332 332 331 331 332 332 332 332 333 333 331 331 330 329 328 328 328 327 324 324 325 324 324 323 323 324 324 324 325 325 325 324 323 322 321 322 323 323 322 322 321
306 306 306 307 307 308 308 308 308 308 307 307 307 308 309 310 312 312 313 314 316 316 317 318 318 315 312 316 321 323 323 323 323 323 323 324 324 324 324 323 324 326 328 329 328 327 329 332 332 331 332 332 331 331 331 331 331 330 330 329 329 328 328 328 327 326 324 325 325 324 323 323 324 323 323 325 326 326 325 324 323 321 322 322 322 322 321 321
306 306 306 306 307 307 307 308 308 308 307 307 307 307 308 309 311 312 312 313 315 316 316 317 318 316 314 316 318 321 322 322 324 324 323 323 323 323 323 323 323 324 325 327 329 328 329 332 331 331 332 330 331 331 330 329 329 330 329 329 330 328 328 328 326 325 325 325 324 323 325 325 324 323 323 325 326 327 325 324 323 322 322 322 321 321 321 321
306 306 306 306 306 306 307 307 307 308 307 307 307 307 307 308 310 311 312 312 314 316 316 317 318 316 316 317 317 318 321 323 324 323 323 323 323 322 323 322 323 323 324 325 328 328 329 331 330 330 330 329 330 330 329 327 327 330 328 329 330 330 331 328 325 325 325 325 324 324 327 329 326 323 324 326 326 326 325 324 322 322 321 321 321 321 321 321
305 306 306 305 305 306 306 307 307 307 307 307 306 306 307 307 309 310 312 313 314 315 316 317 318 318 317 317 316 316 319 322 324 323 323 322 322 322 322 322 323 323 323 324 328 329 329 330 330 329 329 330 330 329 329 327 328 330 329 329 331 332 332 328 324 324 325 325 324 325 327 328 327 325 325 326 327 325 324 324 323 323 322 322 321 321 321 321
305 305 306 306 306 306 306 306 307 307 307 307 306 306 306 307 308 310 312 313 314 315 315 317 318 319 318 317 316 316 317 319 322 323 323 323 322 322 322 323 323 323 323 324 328 329 329 330 329 328 328 329 329 329 330 330 330 330 332 333 332 332 331 328 325 324 326 326 323 325 329 329 327 325 325 326 327 326 323 324 324 323 323 323 322 322 323 323
305 305 305 306 306 305 306 306 306 306 307 307 307 306 306 306 307 309 311 312 313 314 315 317 319 318 318 318 317 316 317 318 319 321 322 323 322 322 322 323 324 324 324 323 326 329 329 329 327 327 327 328 329 329 330 332 332 331 331 333 333 332 330 329 329 324 324 326 322 324 330 333 331 326 326 326 326 327 325 323 324 324 324 324 323 323 323 324
304 304 305 305 305 305 305 306 306 306 306 306 307 306 306 306 307 308 310 311 313 314 315 316 318 318 318 318 317 317 317 316 317 319 321 322 322 322 322 324 326 326 325 325 326 327 327 327 325 326 325 327 329 329 331 333 333 331 329 331 332 332 332 332 333 327 324 326 325 324 326 329 332 327 326 327 326 327 325 324 324 324 324 324 324 325 325 325
304 304 304 304 305 305 305 305 306 306 306 306 307 306 306 306 306 307 308 311 313 314 315 315 317 319 319 317 317 317 317 315 315 317 320 322 322 321 321 324 326 327 326 326 326 325 325 324 323 326 325 326 329 330 333 334 332 332 330 331 331 331 332 332 333 329 326 327 326 325 325 325 327 325 324 326 327 326 325 324 325 325 325 326 326 327 327 327
303 304 304 304 304 304 304 305 305 306 305 306 307 307 307 306 307 307 308 310 313 315 316 316 316 319 319 317 316 317 316 316 315 317 320 322 322 322 321 323 325 325 325 326 325 324 324 323 323 327 327 326 327 329 332 331 330 331 331 332 332 330 330 330 331 329 326 327 327 325 325 325 325 325 324 325 326 326 326 326 325 326 326 326 327 327 328 328
303 304 304 304 304 304 304 304 305 305 305 306 307 307 308 308 308 308 308 309 312 313 315 316 315 317 318 318 317 316 317 318 318 318 319 321 322 322 322 324 324 324 324 325 325 323 324 325 326 328 328 326 325 326 328 329 330 331 332 333 333 333 332 330 330 330 325 327 328 326 326 326 326 326 324 324 326 325 326 326 326 327 327 327 327 327 327 327
303 304 304 304 304 304 304 304 304 305 305 306 307 308 308 308 308 308 308 308 310 311 314 315 315 316 317 318 318 316 317 319 320 320 319 320 321 321 323 323 323 324 324 323 323 322 324 326 327 327 327 325 324 324 325 327 329 331 333 333 333 334 334 331 331 331 326 327 330 328 328 328 328 328 326 324 326 326 325 325 326 326 327 327 327 327 327 327
303 304 304 304 304 304 304 304 304 304 305 306 307 308 307 307 307 308 308 308 309 309 311 314 315 316 316 317 318 316 317 319 320 322 320 319 320 320 321 322 323 324 323 322 323 324 324 325 326 325 325 325 325 324 324 326 327 330 331 330 331 332 332 333 332 331 327 327 331 331 329 329 328 329 327 324 325 326 326 326 326 327 327 327 327 327 327 327
303 303 304 304 304 304 304 304 304 304 305 306 307 307 306 306 307 308 308 309 309 308 309 312 314 316 316 317 318 317 318 319 320 323 322 320 320 319 320 321 323 324 322 323 325 325 326 325 325 325 325 326 326 325 325 326 327 329 330 330 330 329 331 335 335 332 328 326 327 328 328 328 327 328 326 323 323 325 325 326 326 327 327 327 327 327 327 327
303 303 303 303 304 304 304 304 304 305 305 305 306 306 305 306 306 307 309 310 311 309 309 310 312 314 315 317 317 317 319 318 319 323 322 321 321 319 320 320 321 323 323 323 324 324 325 324 323 325 326 326 327 327 327 327 328 328 329 330 329 328 330 335 335 332 330 328 326 326 328 327 327 327 326 324 323 323 323 324 324 325 326 327 327 327 327 327
303 303 303 303 304 304 304 304 305 305 305 305 305 305 305 306 306 306 308 309 311 311 309 310 312 313 314 316 317 317 319 318 319 321 321 321 322 320 320 320 321 323 323 322 323 324 324 322 323 325 326 326 328 329 329 328 329 329 329 329 328 329 331 331 331 330 331 331 329 326 328 331 329 328 327 325 324 323 322 321 322 324 324 325 325 325 326 326
303 303 303 303 303 304 304 305 305 304 305 305 305 305 305 306 306 307 307 308 309 311 311 311 311 312 312 315 316 317 318 318 318 320 321 321 321 321 321 321 321 322 322 321 322 323 322 321 323 325 325 326 327 328 328 328 330 331 329 328 327 328 329 329 329 331 331 332 329 325 327 331 330 328 327 326 324 324 323 320 320 322 323 323 323 324 324 324
303 302 303 303 303 304 305 305 305 304 305 304 304 304 305 305 306 307 307 307 307 311 312 311 311 312 312 314 316 316 318 318 319 321 321 321 321 320 322 322 321 322 321 320 322 323 322 322 323 324 324 326 327 328 328 328 331 330 326 325 327 327 328 329 330 331 331 330 329 325 325 328 329 329 327 325 325 324 323 321 320 320 321 322 322 322 323 324
303 302 303 303 303 304 304 305 305 304 304 304 304 305 304 305 305 306 307 307 309 312 312 311 312 312 313 315 316 316 318 319 319 321 321 320 321 320 321 322 321 322 321 320 322 323 321 321 322 322 323 324 325 327 328 328 329 326 322 323 325 325 327 329 328 329 329 327 328 327 324 327 329 329 326 323 324 324 323 323 321 319 320 320 320 321 323 324
303 303 303 303 303 303 304 304 304 304 304 304 304 304 305 305 305 306 307 307 310 311 311 312 313 313 314 316 316 316 317 318 318 320 321 321 321 319 321 322 320 322 321 319 322 322 320 320 320 321 322 323 324 325 327 327 327 323 322 323 323 322 324 327 328 328 328 328 329 328 326 328 329 328 325 323 323 324 324 323 320 318 320 321 321 321 323 325
303 303 303 304 303 303 303 304 304 304 304 304 304 305 305 306 305 307 307 307 310 311 311 312 313 314 316 317 316 315 316 317 318 320 321 321 321 319 320 321 320 321 322 321 322 321 320 319 318 319 321 321 321 322 323 324 323 321 322 323 322 322 323 326 328 328 329 329 328 327 326 327 328 328 326 325 326 325 323 323 321 319 320 322 321 322 323 325
303 303 303 303 304 303 303 304 304 304 304 304 304 305 306 306 305 306 306 307 309 312 313 313 313 315 316 316 317 316 316 317 318 320 321 320 319 318 319 320 319 321 322 323 322 321 320 320 319 319 319 319 321 321 321 321 321 321 322 321 321 323 324 324 326 327 329 330 329 327 326 326 327 328 327 328 328 325 323 324 324 321 320 322 322 322 323 324
302 303 303 303 303 303 303 304 304 304 305 304 305 305 306 306 306 306 307 307 308 311 312 313 314 316 315 315 316 316 316 317 318 319 321 320 318 318 320 320 320 322 323 324 322 321 321 320 320 320 318 319 321 322 322 321 321 322 321 319 320 324 325 325 326 326 327 329 328 326 326 326 326 325 324 326 325 323 322 322 323 320 320 322 322 322 322 323
303 302 302 303 303 303 303 303 303 304 305 304 305 305 305 305 306 306 306 307 308 309 311 313 314 315 315 315 316 316 317 318 318 319 320 320 319 319 320 320 320 322 323 324 323 323 323 321 320 320 319 319 320 321 323 322 322 321 320 319 320 323 324 325 327 326 326 328 327 326 326 327 327 325 324 323 322 322 321 320 321 320 321 322 322 321 322 322
303 303 303 303 303 303 303 303 303 304 305 304 305 306 304 304 306 306 305 307 309 309 311 314 314 315 315 315 315 316 317 317 318 318 319 320 320 320 320 320 320 321 322 323 322 323 324 323 321 321 321 320 319 320 322 322 321 321 320 320 320 323 324 324 326 327 327 329 328 326 327 329 331 330 325 322 320 320 319 320 320 320 322 323 321 321 322 322
303 303 303 303 303 303 303 303 303 304 304 304 305 306 305 305 306 306 304 306 309 311 312 314 315 315 316 315 315 316 317 317 317 317 318 319 320 320 320 319 319 320 321 322 322 321 323 324 323 320 320 320 319 319 319 321 321 320 321 320 320 323 325 324 324 326 327 328 328 326 329 331 331 328 322 319 319 318 317 318 319 321 321 321 321 322 322 323
304 303 303 304 303 303 303 303 303 303 304 304 304 305 305 305 305 306 305 304 308 312 313 313 315 315 315 315 315 316 316 317 318 318 318 318 319 319 319 319 318 318 319 321 322 321 321 323 322 320 320 319 319 319 318 320 322 320 320 321 320 323 326 324 322 323 324 325 326 327 328 327 325 323 321 319 319 318 318 319 319 320 321 321 322 322 322 323
304 304 304 304 303 303 303 303 303 304 304 303 304 305 305 305 306 308 307 305 307 312 313 313 314 315 315 315 315 316 316 316 317 318 318 318 319 318 318 319 318 317 318 319 321 322 322 323 322 320 321 319 317 318 318 317 320 321 320 320 320 322 324 324 323 323 323 323 324 325 324 322 322 324 324 323 320 319 324 325 320 319 320 321 322 322 322 322
304 303 304 304 303 303 303 303 304 304 304 303 304 305 304 305 306 308 309 307 306 309 311 313 315 315 315 315 315 316 316 316 317 317 318 318 319 319 318 319 318 317 317 317 321 323 321 322 321 319 321 320 317 318 319 318 318 319 320 319 321 323 322 322 322 323 323 322 323 325 324 322 322 321 321 322 323 324 327 327 324 320 320 321 322 322 321 321
304 303 304 304 303 303 303 303 303 304 304 304 304 304 304 305 305 306 307 308 308 309 309 311 313 314 315 315 315 316 315 316 317 317 317 318 318 318 318 319 319 318 317 317 321 323 321 322 322 319 319 319 319 319 321 320 319 319 319 319 321 324 323 322 321 322 323 322 322 324 325 325 323 318 317 319 321 324 323 323 324 321 318 320 322 321 320 321
304 304 304 304 303 303 303 303 303 303 303 304 304 304 304 304 304 305 305 307 309 310 309 310 311 312 314 315 315 315 315 315 316 317 317 317 318 318 317 318 318 318 318 317 320 322 320 320 321 320 319 320 320 319 319 320 320 320 320 320 320 322 323 323 321 323 324 322 322 322 322 327 326 319 318 318 318 320 321 321 321 318 317 319 320 320 321 321
304 303 304 303 303 304 304 303 303 303 304 304 304 304 304 304 304 304 305 306 308 309 309 310 311 310 312 314 315 315 315 315 316 316 317 316 318 319 318 317 318 318 318 319 320 321 321 321 320 320 320 321 320 319 318 319 319 319 320 319 319 320 321 323 322 323 324 323 325 323 320 325 327 320 317 319 318 318 318 319 318 316 316 318 318 318 319 320
303 303 303 304 303 304 304 303 302 302 303 304 303 303 304 305 305 305 304 305 307 307 307 308 310 309 310 313 315 315 316 316 316 316 317 316 316 317 317 317 317 318 319 320 319 319 321 323 321 320 320 320 319 318 318 318 318 319 319 318 319 319 320 321 321 322 323 322 324 325 322 323 324 322 319 318 317 316 316 316 316 315 316 317 317 318 318 319
303 303 304 303 303 303 303 303 302 302 303 304 303 303 303 305 306 306 305 305 306 307 308 309 309 310 310 311 313 315 316 316 316 316 316 316 315 315 316 316 317 318 319 319 318 318 319 322 321 320 320 319 318 318 318 317 318 319 319 318 318 319 319 320 322 322 322 322 322 323 323 323 322 322 318 315 315 315 315 316 315 315 316 317 317 318 318 319
303 304 304 304 303 303 303 303 303 303 303 303 303 303 304 305 305 306 307 307 307 308 309 310 310 310 311 310 312 314 315 317 317 316 316 317 316 315 315 316 317 318 317 317 318 317 318 320 320 320 321 320 319 319 317 317 318 318 318 318 318 318 318 320 322 322 321 321 321 322 322 321 321 321 318 316 317 317 315 316 316 316 316 317 317 318 318 318
303 304 303 304 304 303 302 303 303 304 304 303 303 304 305 305 305 306 307 308 308 308 309 309 309 309 310 310 311 313 314 316 318 317 317 317 315 315 315 316 317 317 316 316 316 316 318 320 320 320 322 321 321 322 320 319 319 318 318 318 317 318 318 319 320 321 320 319 319 321 321 320 319 320 319 318 318 318 317 315 315 316 316 317 317 317 317 317
304 303 301 302 302 302 302 303 303 304 304 304 303 303 304 305 305 306 306 307 308 308 309 309 309 308 309 309 311 313 313 315 318 317 315 316 316 315 315 315 316 316 316 316 316 316 317 320 319 319 321 321 321 322 321 320 319 318 318 317 317 317 317 318 320 320 319 319 319 319 320 319 318 318 318 318 318 319 318 315 314 315 316 317 317 316 316 315
304 303 301 301 302 302 302 303 303 304 303 303 304 304 304 304 305 306 306 307 307 308 309 310 309 309 310 308 310 312 312 314 316 314 314 315 315 315 315 315 316 316 316 315 315 315 316 317 317 318 319 320 321 322 320 319 318 318 318 317 317 317 317 318 319 319 318 319 319 318 319 320 319 317 316 317 319 320 317 314 314 315 315 316 316 315 314 314
303 303 302 302 303 303 302 303 303 303 303 303 304 304 304 304 305 306 306 307 307 307 308 309 309 309 310 309 310 311 311 312 313 312 313 315 315 315 315 315 314 315 315 315 315 316 316 316 316 316 315 317 319 320 319 318 318 317 318 317 317 317 317 318 318 318 318 318 318 317 318 319 318 317 316 316 316 316 315 314 315 315 315 315 315 314 313 312
302 303 302 303 304 303 303 303 303 303 303 304 304 304 304 304 305 306 306 307 308 307 307 308 309 309 309 309 309 310 311 312 313 313 312 313 314 315 315 314 312 311 313 316 315 315 317 318 316 315 315 315 317 318 317 317 317 317 317 317 317 316 317 317 317 317 318 318 316 316 317 318 317 316 316 314 313 314 314 315 315 314 314 314 314 313 313 312
303 303 302 302 303 303 302 303 303 303 303 304 304 305 304 304 304 305 306 307 308 308 307 307 309 310 309 309 308 310 312 313 314 313 312 312 313 314 315 315 313 311 312 315 313 313 315 317 316 316 316 315 316 315 315 316 316 316 317 317 317 317 316 317 317 317 317 318 317 316 317 317 315 314 314 314 313 314 314 314 314 314 314 313 312 312 312 312
303 304 303 302 303 303 303 303 303 303 304 304 304 305 305 304 304 305 306 307 307 308 308 307 309 310 309 309 309 309 310 313 314 313 312 313 313 313 315 314 312 312 313 314 312 312 314 314 314 315 315 315 315 315 314 315 315 316 317 316 316 317 317 317 317 317 317 317 317 317 317 317 315 314 314 314 314 314 313 313 313 313 312 311 311 310 310 310
303 304 303 303 304 304 303 303 303 303 304 303 304 305 305 305 305 305 306 306 306 308 308 307 308 309 309 309 309 309 309 311 312 311 311 313 313 312 313 313 311 312 313 313 312 312 313 313 312 314 315 315 315 315 314 315 316 316 316 315 316 317 317 317 317 316 316 316 317 317 317 316 315 316 317 316 315 314 313 311 311 311 310 309 309 309 309 308
Wind_Speed
25 24 24 25 26 27 28 28 29 28 25 23 23 22 21 22 23 22 20 19 19 19 22 24 24 22 20 19 20 20 21 22 22 21 23 23 20 19 19 17 14 14 13 11 11 11 11 8 5 4 3 4 6 7 4 4 5 2 2 2 2 2 3 3 1 2 2 1 2 4 7 6 5 5 9 8 7 9 7 6 5 4 3 3 5 9 11 12
26 25 24 24 25 27 27 27 29 29 26 24 23 22 22 21 22 22 21 20 19 18 19 21 23 22 20 19 19 19 20 22 23 26 27 22 20 20 19 19 18 15 12 10 10 10 10 8 3 5 6 8 8 6 5 4 6 5 2 2 3 4 6 4 1 2 4 2 1 3 5 6 7 7 8 5 4 9 7 6 7 6 6 6 7 10 10 11
27 26 25 24 25 26 27 27 28 29 27 25 24 23 22 22 22 22 21 21 19 19 18 19 21 22 21 18 18 17 19 20 22 31 30 22 20 21 21 20 19 18 14 11 10 9 9 7 5 8 11 10 10 8 6 4 5 7 5 2 4 6 6 4 5 6 7 6 6 6 5 6 6 6 7 3 4 7 7 8 9 9 12 12 11 11 10 10
27 27 26 25 25 25 26 27 27 29 28 27 27 25 23 23 22 22 21 21 20 19 18 17 19 21 21 18 16 15 14 13 21 34 32 24 20 20 22 23 21 18 15 13 12 9 7 8 7 9 10 9 11 10 7 6 5 5 6 4 5 8 5 3 6 8 7 8 8 5 6 6 5 6 4 3 2 2 6 10 12 13 15 16 15 14 11 11
27 26 26 25 25 25 25 26 27 28 28 28 28 27 26 24 23 22 20 20 20 19 18 16 17 19 21 18 16 14 8 4 12 26 31 28 24 19 20 22 21 18 15 14 13 10 8 9 8 8 7 6 8 8 8 12 9 4 6 7 8 10 4 1 1 3 4 6 6 5 5 3 3 4 2 2 1 2 4 6 8 12 16 17 15 14 13 12
27 27 27 26 25 25 24 25 26 27 27 28 29 28 27 25 24 22 21 20 19 19 17 16 16 17 19 18 16 15 13 5 3 10 21 26 28 24 20 21 20 18 17 15 13 10 9 10 8 6 5 4 6 6 8 14 12 5 6 8 11 13 8 5 3 3 1 3 5 4 3 1 1 2 3 4 6 5 3 2 1 4 10 17 16 14 13 10
27 27 28 27 26 25 24 24 25 26 26 28 29 28 27 27 26 24 22 20 19 19 17 16 15 16 18 18 16 17 21 17 3 2 12 17 22 24 21 21 21 19 18 17 16 13 10 11 9 7 5 4 6 8 12 16 14 8 5 7 12 15 12 9 4 6 5 4 3 1 1 2 1 2 3 6 10 10 8 6 5 4 4 15 18 15 12 8
28 28 28 27 27 26 25 24 24 25 25 27 29 29 28 27 26 25 23 20 20 19 17 17 15 15 18 18 17 18 25 27 11 3 10 14 11 15 19 20 21 20 19 19 18 15 13 13 13 10 5 6 6 7 12 13 11 8 6 8 12 15 13 8 4 6 5 5 3 3 4 7 6 6 6 9 11 9 10 9 9 7 4 13 17 14 11 9
28 29 28 28 28 27 26 25 24 25 25 26 27 29 30 28 26 25 24 21 20 20 17 17 16 15 18 19 18 18 25 31 22 12 11 12 7 7 11 13 16 18 19 20 19 16 14 14 16 13 7 9 10 9 12 8 5 9 12 14 12 13 16 11 7 9 7 6 6 5 6 10 11 8 8 12 14 12 11 10 10 9 9 12 14 14 12 11
29 29 29 29 29 28 27 26 25 24 24 25 26 28 30 31 29 26 23 22 21 20 17 16 16 16 19 22 19 15 21 26 24 23 19 14 12 8 7 5 6 11 16 19 20 19 17 15 14 13 10 9 8 8 11 8 4 10 17 17 12 12 16 15 12 11 9 7 8 7 6 11 12 7 5 8 10 12 15 16 16 14 13 14 14 15 15 14
29 29 29 30 29 29 28 27 26 25 25 25 25 27 29 31 33 29 25 23 22 20 17 17 18 18 21 25 22 15 16 19 17 22 27 27 26 22 18 14 7 6 11 17 20 20 19 17 15 13 9 6 5 5 10 11 10 14 15 13 12 13 13 14 13 11 9 5 10 10 6 9 10 6 8 11 11 12 15 18 21 20 17 16 15 15 16 17
28 29 30 30 29 29 29 27 27 26 25 25 24 26 27 29 32 32 28 25 23 20 18 18 20 21 21 25 31 24 15 15 12 13 22 25 25 23 20 20 17 10 9 13 19 20 18 18 16 14 8 4 3 3 7 11 13 16 12 7 8 9 8 11 11 11 9 3 8 8 4 6 7 8 14 19 20 19 17 17 20 23 21 19 17 16 17 17
27 28 29 30 29 29 29 28 28 26 26 26 25 25 27 28 30 31 30 27 24 21 19 19 22 24 21 22 31 31 22 16 11 11 15 16 15 14 11 14 18 18 12 10 16 20 19 20 18 15 12 8 5 4 8 10 10 12 8 3 4 5 5 8 9 11 9 5 9 7 3 6 7 14 21 22 25 25 21 18 18 21 22 19 17 17 18 18
29 28 28 29 29 29 29 28 28 27 25 25 25 25 26 27 29 29 28 27 26 22 19 20 23 23 23 24 25 27 28 22 14 13 15 15 12 11 12 14 16 18 16 10 15 21 20 19 18 14 10 11 9 7 8 8 5 5 3 3 2 3 3 6 10 11 7 7 13 10 5 8 5 13 20 20 23 23 23 22 20 20 20 19 19 20 19 19
29 29 28 29 29 30 29 28 28 27 26 25 25 25 25 26 28 28 26 26 26 23 20 19 22 21 18 23 23 22 27 26 22 18 15 15 15 14 14 17 17 18 19 14 16 22 21 17 15 10 6 8 9 6 5 4 2 2 3 4 3 4 2 2 8 12 8 8 15 13 5 7 6 15 21 20 22 22 22 25 24 23 22 21 21 21 20 19
30 30 30 29 30 30 29 28 28 27 26 25 25 24 25 25 26 28 26 26 24 22 21 18 22 23 11 13 20 20 22 28 31 26 18 14 14 16 15 16 18 19 19 17 17 19 19 15 10 9 7 3 4 2 2 2 3 2 4 3 2 4 3 3 6 12 14 7 9 12 6 4 5 12 13 12 17 20 22 24 25 26 24 23 23 23 22 21
29 30 30 30 30 31 30 29 28 28 26 25 25 23 24 24 25 26 26 26 24 21 22 18 21 26 15 10 15 21 26 29 31 29 25 19 14 13 15 17 18 20 19 19 19 16 15 12 5 4 6 3 3 4 2 5 6 3 2 3 3 2 2 3 5 9 15 9 6 11 9 6 6 9 10 9 9 12 21 24 24 25 25 24 24 23 23 22
28 28 30 31 30 31 31 30 28 28 27 26 24 23 23 24 24 25 27 27 23 19 19 20 21 18 13 19 20 20 28 31 30 30 27 23 19 15 14 16 17 19 19 14 14 13 9 7 4 2 3 4 4 5 6 6 5 4 4 3 2 3 4 6 4 5 11 10 9 11 10 10 9 11 18 19 13 8 15 19 21 23 22 22 20 20 20 19
28 27 29 30 30 30 30 30 29 28 28 27 25 23 23 23 23 25 28 27 22 15 10 18 26 12 2 20 34 24 21 28 30 30 29 25 23 19 15 16 18 19 16 9 9 14 12 5 3 3 3 6 7 8 10 5 3 6 7 4 4 6 7 6 5 6 10 10 9 11 11 10 11 12 15 21 21 16 16 16 18 21 21 22 21 21 21 22
27 27 28 29 30 31 30 31 30 28 29 27 26 23 19 18 14 15 24 28 30 26 14 15 30 27 5 2 25 29 17 21 27 28 30 27 24 21 19 18 18 16 13 8 7 14 16 6 3 6 6 7 7 8 10 7 5 6 5 6 7 7 6 4 4 5 7 8 8 10 11 9 10 11 12 19 21 18 18 18 20 22 22 23 23 24 24 24
26 26 27 29 30 30 30 30 30 30 29 29 29 24 19 21 12 7 20 26 32 38 29 19 23 34 27 4 6 27 23 19 25 28 29 30 25 19 17 18 12 7 9 9 9 11 13 7 10 13 9 8 7 8 8 9 10 6 4 5 5 5 5 4 4 4 2 5 6 7 11 11 9 9 12 16 13 12 17 19 20 23 25 26 25 26 27 27
26 26 27 28 29 29 30 29 29 30 31 30 32 28 25 29 18 7 14 15 24 37 35 29 20 23 35 19 6 22 26 16 21 28 30 32 29 20 16 15 8 5 7 10 9 6 7 11 17 17 13 10 8 9 9 10 11 7 5 3 2 3 2 4 4 3 2 4 4 3 6 9 9 9 11 12 10 12 18 18 19 22 24 25 25 25 27 27
25 26 26 27 29 29 29 29 29 29 32 32 33 34 30 30 23 10 8 6 14 30 34 36 31 23 28 24 13 23 26 17 18 28 35 34 31 28 22 14 9 8 8 9 9 7 6 11 14 14 14 13 9 10 10 9 9 8 6 5 4 3 0 3 4 4 3 3 4 4 5 6 5 6 8 11 13 13 16 18 20 22 22 24 26 26 26 27
25 25 26 27 27 28 28 28 28 29 33 33 34 37 32 27 25 16 8 2 6 18 31 38 37 33 30 21 17 24 23 22 24 30 37 36 29 26 22 17 13 8 9 13 14 11 7 5 13 14 12 15 12 10 10 8 7 9 9 9 8 6 4 3 1 3 4 5 5 5 6 6 5 6 7 11 12 12 16 20 20 23 25 26 28 29 29 30
26 26 26 27 26 26 27 27 29 32 32 33 35 37 32 24 23 21 10 3 5 6 19 30 32 34 35 24 19 22 19 20 28 34 40 39 32 22 16 19 15 8 12 15 12 10 7 6 17 14 9 14 13 9 12 9 7 8 10 12 10 7 6 3 3 3 3 3 3 2 4 5 4 7 8 8 7 8 12 15 18 25 28 28 29 31 33 33
26 27 26 27 26 25 26 26 31 34 30 34 36 34 32 26 21 21 11 1 6 5 9 19 20 26 35 28 21 21 12 13 25 36 41 39 36 26 13 13 10 10 14 11 6 4 2 5 11 12 11 14 12 10 12 11 7 6 5 8 11 8 6 5 4 4 1 4 3 3 5 5 3 4 7 6 5 7 7 8 15 23 27 29 31 33 35 36
25 27 26 26 26 26 26 25 29 33 31 35 37 32 31 29 23 18 11 2 6 7 8 15 15 20 32 29 27 18 5 12 21 30 42 40 35 28 14 11 9 10 13 8 5 4 7 9 9 11 12 11 10 9 10 12 8 3 3 1 9 9 8 8 6 4 3 2 3 3 4 4 4 4 6 6 6 9 8 7 12 20 25 27 28 29 32 33
25 26 26 26 26 28 28 25 26 33 35 32 32 32 29 30 27 13 6 5 5 10 8 13 15 20 27 28 33 20 4 18 18 20 42 42 33 23 10 13 14 11 15 11 8 7 11 14 12 12 10 7 8 5 8 13 6 1 2 5 3 3 4 6 7 4 2 1 3 5 3 4 5 4 6 7 7 9 11 9 11 18 24 24 25 26 27 28
27 26 27 27 26 27 28 27 27 32 33 27 25 30 29 28 24 9 3 5 2 4 7 17 17 17 21 22 29 25 10 12 10 18 39 37 31 22 6 14 18 11 16 16 10 4 7 17 19 12 7 5 6 4 8 11 7 5 5 6 5 4 4 3 4 5 3 1 7 6 4 4 4 3 4 4 5 8 9 9 9 15 22 23 25 27 24 24
29 27 27 27 26 28 27 27 28 27 29 28 23 27 30 26 15 5 7 5 2 2 7 16 17 17 23 16 15 23 17 7 6 21 33 28 29 23 7 11 13 7 10 13 10 2 3 18 19 9 7 8 7 6 6 9 10 9 5 5 4 3 4 3 1 3 4 5 9 8 8 5 3 3 5 4 5 8 8 7 7 12 19 22 24 26 25 24
30 29 28 29 29 29 29 31 31 24 25 28 25 28 29 17 6 5 8 1 2 5 8 10 14 18 23 17 9 16 17 10 8 16 19 16 16 15 7 6 5 5 6 7 7 2 3 11 9 6 13 12 7 5 4 7 11 8 4 4 3 4 2 3 2 1 3 6 5 8 9 7 5 5 4 4 5 5 6 6 6 9 16 21 25 26 23 18
32 31 29 30 31 30 32 34 31 25 24 28 31 32 23 7 5 7 5 3 1 4 6 8 13 16 20 20 13 14 15 11 11 11 12 10 7 9 11 8 7 7 6 7 8 4 4 7 7 6 14 15 9 5 3 4 7 5 4 4 2 1 1 1 1 1 2 5 3 6 8 5 7 9 8 9 8 6 8 9 10 14 18 22 22 18 12 8
33 33 31 32 32 32 32 30 29 29 26 29 34 28 12 6 7 7 5 4 2 3 5 9 13 16 19 19 14 15 14 11 13 13 13 13 9 10 13 11 11 6 3 9 9 4 4 6 8 6 7 14 14 8 6 5 8 9 8 7 6 4 3 2 3 0 0 3 4 3 5 3 5 7 9 11 9 12 15 16 19 21 24 27 20 9 6 5
34 33 33 34 34 33 32 27 28 31 29 30 29 16 8 7 6 10 10 6 1 2 4 9 12 15 18 18 14 14 12 9 15 15 12 13 10 10 12 11 12 4 3 8 7 7 7 5 10 10 7 14 16 12 11 7 8 10 6 6 6 5 4 3 3 2 2 1 4 2 3 4 4 4 6 9 9 14 16 18 23 22 23 30 21 8 7 12
35 34 35 34 34 33 31 28 28 31 31 29 18 7 9 8 4 8 10 7 2 1 3 7 14 14 13 14 13 16 14 9 14 15 11 12 9 9 12 11 13 8 5 8 4 7 10 4 9 13 11 18 16 10 10 9 5 5 4 5 5 4 4 2 1 3 3 1 2 2 2 4 4 4 6 7 8 13 18 20 21 21 19 23 19 15 17 18
36 36 36 35 36 34 31 30 30 32 34 26 10 6 9 7 4 5 6 8 6 2 2 6 12 13 11 10 10 16 14 7 11 12 9 12 11 11 12 9 12 12 8 8 4 5 8 5 10 11 8 17 18 11 11 9 6 4 4 6 3 2 5 3 0 2 3 2 3 4 4 4 2 7 9 8 9 12 16 14 11 12 13 13 16 19 19 15
38 38 37 37 38 35 32 32 32 34 34 20 7 8 7 5 6 3 3 9 9 5 2 4 8 12 12 10 9 15 13 6 10 11 7 9 10 12 14 10 13 16 11 8 3 3 5 3 9 12 8 14 19 15 9 5 6 6 5 7 3 3 3 3 2 2 3 4 4 5 9 5 2 5 5 3 8 11 10 9 9 11 10 10 14 15 13 9
41 38 36 37 37 34 34 35 33 34 29 13 8 10 6 4 6 4 2 5 8 8 3 4 5 10 11 10 9 15 15 10 11 10 7 7 7 13 17 10 12 19 18 13 4 2 6 3 4 10 9 9 11 11 5 2 1 4 7 10 6 1 3 4 4 3 4 5 3 4 8 5 5 8 7 4 8 10 8 7 7 9 11 14 17 16 11 8
39 32 28 35 37 33 34 35 34 32 19 6 9 10 4 3 4 6 7 3 2 6 7 7 4 3 7 10 10 13 16 14 12 9 8 7 4 12 20 13 11 20 23 16 6 4 6 4 2 6 7 8 7 6 7 4 1 3 7 8 4 2 4 6 5 3 4 5 4 2 4 4 6 10 11 11 10 9 7 6 6 9 15 22 24 19 12 12
36 22 15 31 38 32 34 33 29 24 10 5 9 6 3 4 5 9 12 7 2 3 6 8 5 2 5 9 11 11 13 14 13 10 8 8 5 8 17 16 12 18 22 15 7 4 3 3 4 3 5 8 7 8 11 12 7 5 7 8 6 3 1 1 3 2 2 3 3 2 3 5 6 7 10 12 12 11 9 8 8 7 9 13 16 14 15 19
34 13 7 26 34 31 33 28 16 9 4 6 7 3 2 4 5 11 15 10 5 3 2 4 5 4 4 8 10 11 11 11 12 9 6 9 7 4 12 18 14 17 18 11 7 5 4 4 6 5 5 8 8 9 12 14 13 10 9 10 10 7 4 3 3 2 2 2 3 3 5 7 5 5 8 10 10 8 7 7 6 4 9 10 9 11 16 19
28 9 9 25 33 35 32 16 5 5 5 7 8 5 4 3 6 11 13 10 6 3 1 0 3 4 4 6 8 11 11 9 11 11 7 10 10 6 13 22 20 20 17 10 9 7 3 3 5 5 5 5 3 3 5 11 14 11 7 7 8 7 6 6 6 5 3 3 2 3 4 5 3 4 6 6 6 5 5 5 7 8 8 8 8 9 12 15
21 10 15 25 31 38 28 7 3 7 3 4 8 9 9 4 3 7 9 9 6 3 2 2 3 4 5 5 6 10 12 10 11 12 10 10 11 11 18 25 23 18 13 8 9 6 2 3 5 4 1 1 3 5 4 7 10 6 4 5 8 9 8 6 4 5 6 7 5 4 5 4 3 5 3 3 3 4 4 5 6 5 7 6 5 5 8 11
22 20 24 27 32 36 22 5 7 9 4 5 6 8 9 4 3 6 7 7 6 4 3 4 4 4 5 5 6 9 11 9 10 12 9 9 10 12 23 32 27 17 12 11 11 9 5 4 6 6 2 2 1 1 1 5 8 7 8 9 10 11 10 5 2 3 4 7 8 6 5 5 4 3 1 4 2 2 2 2 2 6 8 6 6 7 6 7
20 16 21 30 38 37 19 6 8 8 7 8 6 8 8 3 5 10 8 6 7 6 3 4 6 4 3 4 6 11 11 5 6 7 3 5 7 7 21 35 30 20 21 23 21 16 8 4 7 9 7 8 10 9 8 9 9 7 9 13 13 15 15 8 3 4 3 5 7 5 4 7 7 5 4 1 2 3 6 5 2 2 3 4 5 5 4 2
13 5 7 17 27 29 17 9 9 6 7 9 6 7 9 5 5 10 12 8 7 8 4 4 5 4 3 6 7 10 10 3 2 5 3 5 4 2 18 35 30 24 26 25 24 16 4 4 8 9 11 12 9 6 6 9 10 9 12 17 16 15 15 8 3 5 6 4 5 5 7 9 11 11 9 7 5 6 7 6 5 3 1 1 2 5 8 12
9 4 4 6 9 12 8 6 7 4 7 10 6 6 11 10 4 6 10 9 8 11 7 3 4 5 4 7 7 7 9 2 3 7 6 6 1 4 17 31 27 27 24 19 22 14 2 4 10 9 10 8 3 3 8 13 16 16 18 20 17 15 15 11 8 11 9 6 5 9 8 8 13 16 12 8 8 9 8 7 9 7 2 1 6 11 16 19
7 6 12 14 7 5 8 10 12 9 10 12 7 6 12 12 8 7 7 5 6 11 7 4 7 9 8 9 9 7 7 2 2 5 4 4 3 2 10 12 10 17 18 14 16 11 3 7 10 9 10 6 3 6 10 13 15 15 17 19 19 18 18 17 16 13 9 8 10 12 12 13 16 17 14 10 10 10 12 14 16 11 4 7 14 18 20 21
7 6 14 19 9 5 10 11 12 11 10 11 8 7 11 13 12 9 4 3 4 8 9 8 10 12 12 11 9 8 9 6 3 5 5 5 6 6 7 3 2 4 9 9 9 5 4 7 8 10 12 8 6 9 11 13 12 11 15 18 19 20 20 19 18 13 11 11 13 12 12 15 16 13 16 14 8 10 16 19 14 9 8 12 17 18 20 20
7 5 11 15 5 5 11 8 8 8 7 9 8 6 9 13 15 11 4 6 7 5 9 13 12 10 12 12 10 11 13 15 12 11 9 8 6 6 6 5 2 2 2 5 5 2 4 6 6 9 9 6 4 9 12 15 14 13 14 15 15 16 16 15 14 11 10 11 14 12 9 11 14 12 15 16 7 8 14 13 10 10 10 12 15 16 17 17
8 5 12 14 3 4 11 6 7 8 6 8 8 7 8 12 16 13 6 10 13 8 10 17 15 7 6 12 15 15 14 12 13 17 19 15 10 7 5 5 8 8 4 3 3 2 4 4 3 6 7 4 2 5 6 8 11 13 14 14 14 14 14 14 14 14 14 15 15 11 7 10 12 8 9 16 15 12 11 10 11 12 10 9 12 13 15 16
8 6 16 17 5 5 9 4 5 7 7 9 11 10 10 11 13 13 8 9 13 13 11 13 13 7 2 9 16 18 17 12 11 17 20 15 10 6 6 10 13 11 8 6 4 3 4 4 3 6 7 5 4 4 1 3 6 8 10 14 18 16 16 15 14 15 17 15 12 11 11 13 9 3 4 13 15 12 10 8 6 7 8 11 13 15 19 21
Wind_Direction
238 237 233 231 232 232 232 233 235 239 242 238 235 237 240 240 238 235 233 232 233 232 228 227 225 226 229 234 237 239 241 242 246 248 246 244 239 235 237 239 234 230 234 245 254 262 272 279 305 322 291 269 270 272 272 234 219 205 102 131 221 242 240 238 280 323 113 110 289 167 148 135 138 133 127 122 118 128 140 151 144 149 163 168 145 151 168 173
236 237 234 231 230 230 231 232 233 235 238 238 235 235 239 241 239 237 235 233 233 234 231 228 224 222 225 230 235 239 241 241 245 247 245 245 242 235 232 236 239 236 229 234 249 256 266 266 278 316 290 260 258 262 251 217 201 200 143 157 219 214 243 275 26 25 63 99 283 77 92 125 157 159 143 149 149 144 145 159 171 160 153 170 172 169 177 177
235 235 234 231 229 229 229 230 230 232 235 237 236 235 238 240 241 239 237 235 234 234 234 230 225 220 220 225 233 238 240 245 250 246 242 243 245 239 232 230 234 238 233 229 241 247 256 245 234 292 291 265 255 252 236 212 205 205 191 213 240 232 272 331 77 84 74 90 77 49 45 92 146 159 146 171 160 163 180 178 179 178 178 186 191 187 186 191
235 234 233 230 228 228 227 228 228 230 232 235 236 235 238 239 240 241 240 239 236 235 235 234 229 222 218 218 227 233 241 256 257 248 241 238 243 244 236 231 228 233 236 234 236 240 242 222 226 279 283 267 259 256 234 209 210 200 189 190 230 242 275 6 82 79 68 73 78 61 27 49 122 150 153 149 117 220 207 190 205 215 208 200 200 202 199 203
234 234 233 230 228 227 226 226 226 227 229 232 235 234 236 238 238 239 241 241 239 236 235 236 233 226 218 213 219 221 218 270 264 251 246 239 238 242 241 236 228 224 229 237 235 233 229 215 238 273 258 253 260 260 244 226 222 217 222 221 233 250 261 240 121 71 49 59 75 83 57 59 129 143 168 152 183 228 145 161 216 232 226 214 208 206 203 208
232 232 232 231 229 228 226 225 225 225 225 228 232 232 233 236 237 237 239 240 241 238 234 235 233 229 219 209 213 205 194 215 294 241 239 238 235 237 242 241 230 216 217 230 235 233 226 217 245 268 217 224 249 244 251 240 231 237 258 248 251 257 260 256 218 155 189 87 75 84 92 112 39 336 263 221 243 231 141 81 262 247 225 218 214 202 198 206
230 230 231 230 229 229 227 225 224 224 223 224 227 230 232 233 235 236 237 238 241 238 232 231 230 228 219 207 208 207 207 219 254 211 209 217 227 228 233 237 226 212 208 219 229 231 226 219 234 250 214 218 242 241 253 251 239 232 259 262 262 262 269 278 226 161 175 155 106 115 213 287 316 309 277 249 260 253 246 278 298 304 221 206 208 200 200 208
228 229 229 228 228 228 227 225 224 224 224 222 222 226 230 232 233 234 236 236 238 238 231 228 227 223 216 207 209 217 222 219 209 194 179 170 185 203 213 221 219 211 206 212 222 226 225 220 222 230 221 220 226 237 248 252 244 232 245 254 256 259 266 280 221 178 186 187 213 246 252 263 251 258 268 257 262 253 244 270 281 269 210 196 203 202 206 214
230 230 229 228 228 228 227 226 224 224 223 222 220 221 225 230 232 231 233 234 235 235 230 224 223 221 212 208 213 223 233 226 212 197 167 154 147 159 186 203 212 210 204 206 214 218 221 221 219 220 225 232 235 248 248 246 240 226 235 245 247 247 249 254 229 198 196 199 210 232 246 253 255 262 268 255 252 247 242 254 260 242 204 193 204 214 221 227
229 229 230 230 228 228 227 225 225 224 222 222 220 218 220 225 230 230 230 232 232 232 228 220 218 219 210 209 216 226 234 233 223 213 208 219 234 225 204 194 205 211 207 206 206 208 213 217 219 225 243 250 243 257 254 244 240 235 240 246 249 249 248 252 249 215 198 205 208 209 228 243 247 245 253 248 240 244 246 243 242 237 217 206 214 225 231 237
230 228 229 229 228 228 226 225 225 224 222 222 220 219 218 219 224 229 230 231 231 228 225 220 215 216 212 212 220 228 227 230 226 216 222 237 246 248 247 241 226 206 208 209 208 208 210 215 223 233 245 256 255 276 270 257 260 262 260 262 263 264 260 256 254 220 191 202 210 210 233 247 246 234 230 232 230 238 246 244 238 234 232 226 223 226 231 237
230 228 229 228 227 227 226 226 225 224 223 221 221 219 218 217 218 224 229 230 229 226 222 219 214 214 215 219 226 225 218 223 215 205 220 234 245 252 255 249 238 225 218 215 212 209 209 215 227 237 231 244 272 280 278 271 268 267 266 274 273 275 267 249 242 205 181 196 204 205 271 256 236 232 234 238 239 239 243 247 239 231 232 235 234 232 232 237
227 226 228 228 227 227 226 225 226 225 222 221 222 219 217 217 216 219 224 227 228 226 221 219 215 214 214 223 231 225 217 217 195 185 212 222 233 236 233 235 231 226 227 226 215 209 207 215 227 237 234 243 268 261 279 290 272 256 248 247 276 295 270 227 218 194 183 204 186 171 273 243 228 236 237 245 247 243 241 243 241 232 228 234 242 240 237 237
226 224 224 225 225 225 224 225 226 225 223 222 221 220 219 217 216 217 219 222 225 225 222 221 216 213 218 228 235 228 223 222 199 184 203 210 208 202 197 204 210 216 221 221 215 210 206 214 227 235 235 235 250 280 297 302 269 228 233 247 216 254 252 192 193 181 174 213 184 162 247 248 246 247 240 246 250 244 238 236 236 232 229 236 243 241 241 238
225 224 222 221 222 222 222 223 224 224 224 223 220 220 220 217 216 216 217 219 220 222 221 222 215 209 222 235 237 232 225 223 215 199 200 213 214 203 194 196 198 206 215 214 210 208 206 214 223 219 220 226 237 278 318 317 296 172 206 239 198 219 260 219 212 193 189 220 185 168 247 263 255 257 250 247 248 242 233 231 229 229 233 237 240 239 240 242
224 223 222 221 220 221 220 219 221 221 222 223 221 220 220 219 218 217 218 218 218 219 217 220 215 207 220 243 232 226 218 219 221 214 210 214 214 208 195 191 194 196 203 209 209 207 205 211 216 202 193 187 195 217 341 300 277 239 207 209 194 221 249 300 263 214 204 208 184 187 225 260 246 258 256 247 251 244 230 226 223 223 229 232 234 237 240 246
224 223 222 221 221 221 219 218 218 218 219 221 220 219 219 219 220 219 218 219 219 216 215 220 216 211 218 234 221 213 211 216 219 217 216 209 200 202 193 186 188 190 192 199 204 204 203 200 190 190 189 162 143 146 192 231 225 240 237 221 222 218 202 234 272 226 201 189 198 211 222 232 249 267 261 262 282 250 224 221 221 221 226 230 234 238 241 245
225 224 223 221 221 220 219 218 217 216 217 217 218 218 217 217 218 219 219 221 220 215 219 220 214 210 213 219 217 209 211 215 214 213 210 202 199 206 204 194 190 190 186 184 189 185 184 185 161 154 166 167 173 168 204 215 186 197 210 212 234 236 220 216 251 226 188 191 209 212 226 237 250 267 260 262 281 266 226 218 216 220 225 230 235 239 241 243
223 223 222 220 221 219 218 218 216 216 215 214 215 215 215 214 214 218 218 220 216 207 213 206 204 208 210 219 218 214 211 211 210 208 203 196 194 199 206 205 196 185 171 165 183 170 156 142 150 183 185 189 198 201 216 215 164 201 205 192 200 225 238 227 245 228 185 198 214 208 224 234 241 257 259 259 264 262 251 237 224 224 227 230 234 238 241 242
220 222 221 219 219 219 218 218 216 215 213 211 210 207 209 204 202 219 216 220 219 210 211 203 204 215 243 253 215 209 199 198 199 199 201 199 189 186 189 189 183 178 172 166 178 172 164 157 203 202 193 193 204 218 229 243 244 221 196 206 210 219 244 233 254 258 200 204 219 216 226 231 234 247 252 252 256 256 251 246 240 236 236 235 234 234 236 239
218 220 220 218 218 218 218 217 215 215 212 211 208 203 203 193 181 208 207 217 225 216 219 220 212 220 226 298 214 199 186 180 191 194 202 202 190 183 178 173 167 175 185 154 136 161 166 187 225 212 197 186 194 218 232 246 251 242 205 222 228 218 244 247 256 297 267 229 236 226 232 240 240 245 250 246 243 244 240 240 243 242 242 241 238 238 241 244
217 218 219 218 216 216 216 215 214 214 212 210 209 208 209 202 194 203 198 213 232 224 224 225 227 232 227 242 262 194 184 174 187 191 195 195 191 188 176 171 178 174 163 139 130 152 171 209 220 208 196 188 192 207 218 233 240 244 233 240 263 226 268 285 276 326 321 241 258 262 247 248 247 249 254 247 232 239 244 245 247 244 243 243 244 246 247 247
216 216 217 217 216 215 213 214 213 214 212 208 208 210 213 209 201 201 186 191 239 229 225 224 227 237 231 235 225 190 181 171 181 187 188 187 187 189 180 172 185 175 157 163 167 166 194 217 205 186 180 181 189 197 202 224 231 234 230 228 251 238 252 273 285 353 339 280 309 323 291 266 260 265 267 254 241 245 255 257 258 254 251 252 254 255 253 251
216 214 215 214 214 212 210 212 210 213 214 209 210 212 213 209 204 210 209 224 273 227 223 224 223 229 231 231 214 193 185 181 183 185 185 183 180 183 183 177 181 179 174 185 184 189 222 194 150 153 170 176 181 188 193 211 224 226 224 225 236 226 208 222 257 3 341 317 319 323 303 275 247 252 264 264 255 253 257 258 259 257 255 257 259 259 259 258
215 213 214 211 209 207 206 209 207 210 213 211 214 214 213 209 205 215 220 282 298 214 217 220 219 229 228 228 220 199 194 193 188 187 185 184 179 174 178 182 181 187 189 187 187 202 233 163 145 149 163 174 178 186 190 198 218 225 220 217 220 212 198 170 103 59 3 305 266 245 275 276 241 233 239 252 265 263 260 258 259 259 259 258 258 258 258 258
213 212 211 209 207 203 202 206 207 208 210 213 216 213 211 208 204 207 191 318 274 184 180 193 200 224 221 221 217 193 194 207 195 191 187 187 186 175 168 181 184 196 186 176 194 212 222 175 158 152 159 168 181 196 189 184 202 228 227 208 203 199 196 188 153 130 164 250 239 195 232 275 306 262 242 239 261 266 254 249 252 257 261 261 260 260 260 260
213 211 210 208 205 201 201 205 205 205 207 213 215 211 209 206 205 199 173 248 251 161 161 174 174 206 210 210 200 182 164 181 187 194 187 186 188 179 173 179 181 193 173 153 212 194 149 177 176 157 160 164 181 197 183 174 188 232 344 194 193 195 195 191 174 166 197 258 292 260 225 263 284 262 251 244 265 274 262 249 252 256 259 261 262 263 262 261
212 211 210 208 205 203 203 205 205 203 205 211 210 206 206 204 203 190 163 234 197 134 157 178 177 195 198 196 190 185 150 160 171 198 190 188 188 181 185 187 180 176 166 166 201 180 156 175 177 164 161 166 182 176 159 164 162 169 44 61 127 171 179 167 159 184 222 26 280 264 211 245 263 250 247 238 241 263 265 256 251 255 259 260 263 264 260 254
211 210 210 207 206 206 204 205 208 207 207 208 205 202 203 198 193 179 197 233 163 117 155 166 176 182 172 173 184 190 192 175 177 184 186 191 192 187 197 194 188 171 170 183 191 175 166 178 175 164 155 180 180 127 138 150 135 160 145 82 75 66 65 104 148 163 139 183 235 223 180 231 265 229 217 223 219 233 252 257 248 254 261 264 265 261 252 243
211 209 208 207 204 202 202 206 209 211 207 204 202 198 193 187 178 179 225 219 91 158 153 158 168 157 152 159 184 189 192 209 191 170 178 189 193 192 192 190 190 164 174 194 191 169 162 174 173 165 177 185 160 128 125 130 133 148 126 62 33 27 69 69 42 123 136 223 232 202 184 207 260 236 189 188 219 213 226 256 264 263 262 262 262 256 244 237
212 208 206 207 205 200 200 205 206 207 203 199 197 186 177 173 176 208 211 201 27 173 151 159 166 152 161 173 178 182 187 199 184 168 176 185 185 184 174 173 178 157 177 197 194 171 121 163 171 195 196 176 118 104 113 129 146 139 89 60 20 352 40 54 8 95 184 229 219 181 184 191 226 249 213 221 249 214 206 237 260 265 260 258 257 253 242 236
211 209 206 207 209 204 202 206 202 195 197 196 185 171 164 173 216 210 180 107 9 194 157 164 168 162 173 181 177 178 183 190 185 177 177 177 176 177 180 181 166 169 187 182 182 175 158 176 173 186 194 175 132 107 110 138 163 150 120 126 115 257 281 58 210 195 212 244 227 172 181 192 228 245 243 252 273 270 259 264 268 269 268 266 260 249 234 233
209 208 207 206 210 209 206 209 199 191 196 190 174 160 164 226 205 193 198 171 208 243 182 174 176 172 171 178 185 180 181 185 180 184 184 178 183 186 191 193 176 174 178 169 174 157 155 194 173 152 182 176 159 151 165 173 177 178 170 166 173 189 190 177 191 99 195 264 286 197 177 201 252 250 230 229 245 256 260 264 271 275 268 263 260 236 223 269
207 207 208 206 210 211 208 207 199 196 195 182 170 161 186 221 186 183 208 214 250 277 203 175 175 176 174 180 185 174 181 191 177 182 186 181 189 189 192 200 188 173 98 159 175 165 174 196 174 169 172 175 178 182 178 157 166 186 172 160 177 179 183 187 179 185 177 255 298 243 177 193 223 239 203 199 227 250 262 271 279 283 261 251 258 266 281 296
206 206 207 207 210 211 207 204 201 199 189 175 173 186 193 201 188 181 202 218 217 272 247 190 174 178 184 185 182 179 186 191 176 182 187 184 193 188 185 194 189 175 152 170 175 175 192 210 172 176 169 170 184 189 158 126 146 189 136 149 200 189 171 183 178 167 142 99 278 205 213 217 217 263 248 233 261 275 284 285 284 290 270 252 263 277 282 288
205 205 207 209 208 208 204 202 204 200 185 173 183 214 196 205 199 165 188 205 198 151 213 215 183 177 188 183 181 188 191 183 173 183 193 188 196 193 187 193 186 180 178 177 167 177 193 199 177 173 165 178 183 175 165 159 159 166 154 174 201 113 127 128 241 120 109 225 225 186 239 269 273 281 268 256 267 276 286 281 257 264 267 248 252 262 266 271
201 203 206 209 208 206 200 199 205 198 184 177 205 208 194 211 197 168 188 195 197 176 154 230 191 176 184 183 183 186 181 170 176 185 195 186 194 195 191 196 184 184 197 195 190 194 171 170 183 171 172 191 180 160 168 186 150 146 174 172 125 49 97 131 183 141 143 230 237 202 229 233 182 259 282 258 242 241 258 269 239 237 249 246 252 259 258 245
197 199 205 209 208 204 199 200 201 190 180 181 222 211 198 208 188 185 234 192 193 194 210 265 199 177 183 180 183 183 176 178 182 182 189 183 192 190 184 190 183 185 199 197 189 205 164 137 209 187 177 175 158 148 167 273 128 142 164 164 147 140 192 169 174 171 175 214 240 214 225 215 191 233 258 246 228 217 217 245 246 239 241 242 250 256 249 207
190 192 205 211 207 201 201 201 191 180 175 188 219 210 190 214 216 210 220 238 207 186 211 252 246 189 195 183 177 180 180 188 183 177 192 189 193 190 183 182 181 186 193 189 181 198 170 153 216 200 176 154 150 173 182 182 5 77 137 170 190 206 193 178 171 178 180 195 219 207 208 223 216 223 233 232 228 226 229 243 249 243 239 240 243 241 219 176
182 181 205 209 204 201 199 195 184 177 179 203 213 210 165 190 236 233 226 229 254 175 202 237 244 224 217 195 182 179 186 195 188 183 198 187 185 201 188 181 176 182 188 189 190 182 156 186 196 165 160 165 177 202 188 175 167 145 156 183 202 194 154 138 159 161 143 161 213 235 234 251 242 215 217 224 226 231 241 257 269 256 226 225 228 209 175 162
177 176 195 199 201 195 185 183 181 178 183 200 209 228 189 181 195 227 235 225 218 227 207 231 236 228 232 210 190 178 184 196 191 186 196 186 190 216 193 186 175 172 179 188 200 187 166 193 183 160 178 187 196 208 194 179 172 174 183 184 187 180 139 139 190 179 152 170 178 197 239 255 246 203 205 217 224 226 236 250 243 176 132 126 135 147 153 160
172 178 175 187 194 186 175 172 180 182 191 202 198 192 201 193 173 203 224 219 212 228 182 332 243 228 243 235 205 184 179 190 190 186 191 195 197 200 191 187 176 171 176 183 194 188 132 130 150 155 181 192 225 227 168 175 183 190 202 187 184 185 164 174 194 176 178 213 169 163 236 254 239 203 196 200 207 198 193 204 182 151 118 99 104 131 159 169
164 151 160 182 190 180 173 180 190 182 210 201 191 195 198 204 170 177 198 209 207 178 167 213 212 205 228 242 227 196 180 185 193 188 185 193 200 199 189 181 172 172 176 174 186 187 85 113 145 140 126 45 351 8 72 166 183 191 228 205 189 193 190 188 189 169 180 200 187 190 235 259 254 233 202 136 178 195 165 158 148 97 55 61 89 111 156 167
149 137 149 176 188 178 174 197 188 187 203 164 175 203 199 199 196 180 183 199 195 160 176 218 198 197 223 229 236 218 191 184 194 191 181 186 196 192 185 180 174 173 181 182 179 177 176 174 155 145 142 135 140 87 124 180 188 194 206 201 194 191 181 160 136 154 182 197 187 188 228 255 260 255 328 71 118 244 241 166 100 31 30 61 82 72 109 144
138 133 148 165 177 179 182 201 189 191 190 171 177 196 191 198 207 197 193 197 197 172 169 227 208 198 249 264 248 224 210 201 183 178 160 178 192 182 178 182 179 178 189 188 172 163 175 197 174 169 177 183 186 190 183 181 189 197 193 189 192 188 177 169 164 168 187 201 183 167 208 247 263 282 301 292 157 249 272 259 256 346 12 72 86 63 56 35
138 122 138 152 169 181 194 206 193 193 187 179 182 188 190 205 210 200 200 206 207 187 188 247 204 181 253 262 253 220 213 250 146 152 144 171 206 256 177 180 184 189 192 179 160 153 163 211 194 194 198 197 198 191 154 150 168 182 184 186 192 190 182 168 135 174 192 186 187 205 211 234 259 265 259 251 240 255 259 244 230 222 199 127 23 343 328 322
141 145 150 140 158 182 204 211 192 187 180 177 177 183 192 199 192 192 203 209 203 195 211 256 186 191 224 220 240 225 197 208 115 140 149 156 213 289 184 179 185 190 185 169 158 151 99 211 202 210 214 205 179 142 142 153 175 186 184 184 185 184 179 178 191 199 189 166 210 232 210 215 250 252 242 231 232 250 261 262 268 265 201 245 318 318 313 309
151 159 166 162 151 175 198 200 194 186 175 176 177 175 187 197 195 188 199 204 190 190 207 231 199 211 217 206 231 229 176 149 93 140 144 136 132 213 184 179 189 181 169 164 169 156 124 205 202 204 218 212 137 157 162 166 184 188 182 182 182 180 179 189 204 201 170 173 215 216 194 207 236 247 248 231 201 219 252 263 271 282 323 327 318 313 306 300
140 123 162 170 168 188 188 183 183 182 180 183 187 181 183 193 197 196 177 150 186 196 205 224 219 213 215 217 234 226 180 166 176 175 158 151 167 173 163 164 304 180 159 161 174 166 169 194 183 187 212 218 173 171 170 173 183 184 184 186 182 182 185 192 202 196 174 195 220 210 195 215 231 240 252 249 197 199 241 255 266 294 323 314 307 300 292 286
150 117 162 171 163 178 175 158 158 176 192 196 203 204 190 192 198 200 174 169 193 196 194 215 227 214 211 215 230 241 209 182 178 180 162 154 186 194 173 175 163 125 135 151 163 197 199 185 156 163 198 229 197 184 182 181 184 186 190 189 180 181 187 193 202 196 184 209 225 214 204 231 242 240 253 267 259 218 241 261 282 302 306 295 286 279 277 280
163 152 167 166 123 158 172 163 161 174 189 200 207 206 195 202 199 193 194 199 199 189 189 208 217 211 214 215 219 237 232 197 177 176 167 158 166 175 174 175 158 149 146 138 148 187 187 173 122 142 184 227 213 193 192 177 179 190 191 181 175 179 186 196 204 199 194 204 214 210 209 234 242 234 251 272 271 254 257 275 286 291 287 268 263 266 274 284
162 159 173 172 155 161 172 161 161 181 199 201 202 198 199 210 197 183 199 215 206 207 211 210 204 193 224 229 222 229 231 212 177 169 166 149 126 112 124 145 154 158 161 150 140 141 150 152 136 151 183 206 192 185 157 113 161 196 197 181 179 186 192 199 210 211 204 199 198 205 216 227 228 172 213 258 264 266 278 281 268 264 251 249 261 272 282 289